Simultaneous Nadir Overpasses (SNOs) Predictions

Prediction of SNOs between GOES-16 and AQUA Satellite Orbit:

Table of predicted SNOs for the next 14.0 days since TLE Epoch: 11/30/2018
Index Date Time (GOES-16) GOES-16 Lat,Lon AQUA Lat,Lon Distance(km) Time Diff (sec)
1 12/02/2018 06:29:29 0.00, -75.21 -0.27, -73.86 152.62 80
2 12/02/2018 18:50:53 -0.00, -75.21 -0.81, -79.06 437.33 80
3 12/04/2018 06:17:18 0.01, -75.21 -0.92, -70.91 489.52 80
4 12/04/2018 18:38:41 -0.00, -75.22 -0.22, -76.09 100.25 80
5 12/06/2018 18:29:10 -0.00, -75.23 0.45, -73.14 237.37 80
6 12/07/2018 06:50:25 0.00, -75.23 0.66, -78.30 348.80 80
7 12/09/2018 06:38:15 -0.01, -75.25 -0.00, -75.35 10.94 80
8 12/11/2018 06:23:23 -0.01, -75.27 -0.61, -72.39 327.85 80
9 12/11/2018 18:44:46 0.02, -75.28 -0.45, -77.58 261.54 80
10 12/13/2018 18:35:14 0.02, -75.31 0.16, -74.62 78.04 80




NCC Satellite Simultaneous Nadir Overpasses (SNOs) Prediction Service
